Regional Weather Roundup
Issued by NWS

Home | Current Version | Previous Version | Graphics & Text | Print | Product List | Glossary Off
Versions: 1 2 3 4 5 6 7 8 9 10 11 12 13 14 15 16 17 18 19 20 21 22 23 24 25 26 27 28 29 30 31 32 33 34 35 36 37 38 39 40 41 42 43 44 45 46 47 48 49 50

000
ASUS43 KLOT 030810
RWRIL

ILLINOIS REGIONAL WEATHER ROUNDUP
NATIONAL WEATHER SERVICE CHICAGO/ROMEOVILLE IL
300 AM CDT WED SEP 03 2014

NOTE: "FAIR" INDICATES FEW OR NO CLOUDS BELOW 12,000 FEET WITH NO
SIGNIFICANT WEATHER AND/OR OBSTRUCTIONS TO VISIBILITY.

* THESE STATIONS ARE NOT UNDER NWS QUALITY CONTROL. THEY ALSO MAY NOT
  REPORT WEATHER SUCH AS PRECIPITATION OR FOG.

ILZ001-002-007-009-015-016-024-030900-
NORTHWEST ILLINOIS

CITY           SKY/WX    TMP DP  RH WIND       PRES   REMARKS
MOLINE         CLEAR     59  57  93 CALM      29.98F
STERLING*      CLEAR     57  54  88 CALM      29.99F
SAVANNA*       FOG       59  57  94 CALM      29.99S VSB 1/2
$$

ILZ003-004-008-010-011-017-018-030900-
NORTH CENTRAL ILLINOIS

CITY           SKY/WX    TMP DP  RH WIND       PRES   REMARKS
ROCKFORD       CLEAR     59  56  89 S5        30.00F
FREEPORT*      CLEAR     57  56  94 CALM      30.01S
ROCHELLE*      CLEAR     56  55  96 CALM      30.00S
DE KALB*       CLEAR     59  56  90 SW3       30.00S
PERU*          CLEAR     64  62  93 CALM      30.00R
$$

ILZ005-006-012>014-019>023-030900-
NORTHEAST ILLINOIS

CITY           SKY/WX    TMP DP  RH WIND       PRES   REMARKS
CHICAGO-OHARE  PTCLDY    65  59  81 W3        29.98S
CHICAGO-MIDWAY PTCLDY    68  63  84 W5        29.98S
AURORA         CLEAR     58  55  90 CALM      29.99S FOG
LANSING*         N/A    N/A N/A N/A MISG        N/A
JOLIET*        FOG       61  59  94 CALM      29.99S VSB 1
WAUKEGAN       CLEAR     63  59  87 CALM      29.97F
DUPAGE AIRPORT CLEAR     64  60  87 CALM      29.98S
KANKAKEE*      PTCLDY    62  61  98 CALM      30.00S
WHEELING       CLEAR     65  60  84 CALM      29.99S
MORRIS*        CLEAR     63  63 100 CALM      29.98S
ROMEOVILLE*    CLEAR     61  60  98 CALM      29.99S
NORTHERLY ISL    N/A     71  60  68 SW5         N/A
$$

LMZ740>746-030900-
SOUTHERN LAKE MICHIGAN

STATION/POSITION SKY/WX   TEMP    WIND        PRES    VSBY  WAVE
                          AIR SEA DIR/SP/G                  HT/PER
                          (F)     (DEG/KT/KT) (MB)    (MI)  (FT/S)
SOUTHERN BUOY              71 70  240/  6/  6 1014.6F         0
WAUKEGAN HARBOR            68     270/  6/  7   N/A
HARRISON CRIB              72     270/  6/  7   N/A
BURNHAM HARBOR             71     270/  2/  5   N/A
CALUMET HARBOR             69     240/  3/  5 1014.1R
MICHIGAN CITY              69     190/  8/  9   N/A
MICHIGAN CITY 6N           71 72  240/ 10/ 12   N/A           1/ 2
ST. JOSEPH                 72 72  210/  8/ 12   N/A           1/ 2
$$

ILZ025>027-034>036-040-047-049-050-058-095>099-030900-
WEST-CENTRAL ILLINOIS

CITY           SKY/WX    TMP DP  RH WIND       PRES   REMARKS
QUINCY         CLEAR     66  64  93 S5        29.99S
GALESBURG*       N/A     58  56  95 CALM      29.99S FOG
MACOMB*        CLEAR     60  59  97 CALM      30.02S
JACKSONVILLE*  CLEAR     68  66  94 SW5       30.01S
PITTSFIELD*    CLEAR     67  65  93 CALM      30.01S
$$

ILZ028>032-037-038-041>044-048-051>054-059>061-030900-
CENTRAL ILLINOIS

CITY           SKY/WX    TMP DP  RH WIND       PRES   REMARKS
PONTIAC        CLEAR     63  63 100 CALM      30.00R FOG
DECATUR        CLEAR     68  65  90 SW3       30.00F
PEORIA         CLEAR     65  62  90 CALM      29.99F
LACON*         PTCLDY    62  60  96 CALM      29.98S
LINCOLN*       PTCLDY    65  64  94 CALM      29.97F
SPRINGFIELD    CLEAR     65  63  93 SW3       30.00F
TAYLORVILLE    CLEAR     64  63  94 CALM      30.00F
$$

ILZ033-039-045-046-055>057-062-063-030900-
EAST-CENTRAL ILLINOIS

CITY           SKY/WX    TMP DP  RH WIND       PRES   REMARKS
CHAMPAIGN      CLEAR     65  64  97 SW5       30.01S
DANVILLE*      CLEAR     65  64  97 W3        29.98S
RANTOUL*       CLEAR     65  63  91 SW3       30.01S FOG
MATTOON        CLEAR     69  65  86 W5        30.00F
PARIS*         CLEAR     66  65  97 W3        30.02S
$$

ILZ079-100>102-030900-
SOUTHWEST ILLINOIS

CITY           SKY/WX    TMP DP  RH WIND       PRES   REMARKS
BELLEVILLE     FOG       63  63 100 CALM      29.99S VSB 3/4
CAHOKIA*       FOG       64  63  96 CALM      29.99F VSB 1/4
SPARTA*        PTCLDY    65  65  99 CALM      30.01S FOG
$$

ILZ064>066-069>071-074>076-080>082-084>086-088>090-092>094-030900-
SOUTH-CENTRAL ILLINOIS

CITY           SKY/WX    TMP DP  RH WIND       PRES   REMARKS
CARBONDALE     FOG       64  64 100 CALM      30.00F VSB 3/4
CAIRO*         CLEAR     71  69  93 CALM      30.00S FOG
EFFINGHAM*     PTCLDY    63  61  92 CALM      30.01S FOG
MARION         FOG       68  68 100 CALM      30.01S VSB 1/2
MT. VERNON     CLEAR     64  61  88 CALM      30.02R
CENTRALIA*     FOG       62  60  94 CALM      30.00S VSB 1/2
SALEM*         FOG       65  65  98 CALM      30.01S VSB 1/4
METROPOLIS*    CLEAR     68  68 100 CALM      30.00R FOG
$$

ILZ067-068-072-073-078-083-087-091-030900-
SOUTHEAST ILLINOIS

CITY           SKY/WX    TMP DP  RH WIND       PRES   REMARKS
LAWRENCEVILLE  FOG       64  64 100 S3        30.01R VSB 1/4
FLORA*         FOG       62  62 100 CALM      30.01S VSB 1/4
FAIRFIELD*     FOG       64  64 100 CALM      30.00F VSB 1/2
HARRISBURG*    FOG       67  67 100 CALM      30.02S VSB 3/4
ROBINSON*      FOG       62  61  98 CALM      30.01S VSB 1/4
CARMI*         FOG       66  66  99 CALM      30.00S VSB 1/4
$$

ABBREVIATIONS USED IN REMARKS
   TC - TEMPERATURE IN CELSIUS
  WCI - WIND CHILL INDEX
   HX - HEAT INDEX
  VSB - VISIBILITY
$$



USA.gov is the U.S. government's official web portal to all federal, state and local government web resources and services.